Showing default

YAOGAN-30 AF, 49029

Orbit data source: Space-Track

YAOGAN-30 AF, 49029 is a payload satellite owned by PLA SSF (CN) in LEO that was launched on Mon, 19 Jul 2021 UTC via a CHANG ZHENG 2C launch vehicle from the Xichang Space Center, China (XSC). Payload-class satellites include a variety of spacecraft equipped with specific instruments for various scientific and technological missions. These include communications satellites like Starlink; space stations such as the ISS; scientific satellites like the Hubble; Earth observation satellites from companies like Planet Labs, Umbra, and HawkEye 360; GPS; miniature CubeSats for education and research; and military/defense satellites.

Loading next visibility...
Identifier
49029, 2021-065D
Orbit
LEO
Country
Flag of CNCN / PRC
Related business
Manufacturer
SECM
Mission
Operational Defense Sigint
Bus & Motor
Unknown
Mass
~500 kg wet, ~500 kg dry
Launch date (UTC)
2021-07-19 (5 years ago)
Launch vehicle
CHANG ZHENG 2C
Launch site
Xichang Space Center, China (XSC)
Object type
Payload
Rocket body
Debris
Shape & HBR
Box + 2 Pan, 0.5 m
Radar Cross Section
0.446 m², Large (>1 m²)

Expand to show TLE details & history
Last TLE update: 22 hours ago

TLE from 22 hours ago
0 YAOGAN-30 AF
1 49029U 21065D   26172.52945727  .00001815  00000-0  13534-3 0  9991
2 49029  34.9945 246.1794 0004461 304.2696  55.7590 15.02706742269314
Epoch: 2026-06-21T12:42Z
TLE epoch observation values (Epoch: 2026-06-21T12:42:25.108Z)
Latitude
0.00002°
Longitude
145.8464°
Altitude
555.73 km
Speed
7.587 km/s
True Right ascension
16h 24m 43s
True Declination
0° 00' 00"
Sunlit
Object was in full shadow at epoch
Visualization orbit readout
Latitude
Unknown
Longitude
Unknown
Altitude
Unknown
Speed
Unknown
Apparent Right ascension
Unknown
Apparent Declination
Unknown
Sunlit
N/A
Visualization observer readout
Local Sidereal Time
21:25:00
Azimuth
Unknown
Elevation
Unknown
Doppler factor
Unknown
Orbital elements
Apogee altitude
564.872 km
Perigee altitude
558.68 km
Semi-major axis
6,939.913 km
Eccentricity
0.00045
Inclination
34.9945°
RAAN
246.1794°
Arg. of periapsis
304.2696°
True anomaly
55.80127°
Mean anomaly
55.759°
Eccentric anomaly
55.78013°
Mean motion
3.75415 °/min
Orbital period
95.89 mins
BSTAR
0.00013534
Loading maneuver chart data...
Computing Atmospheric mass density...
Loading historical data...
Loading historical data...
Loading historical data...
Loading historical data...
Loading historical data...
Loading historical data...
Loading historical data...
Other satellites on launch #65 in the year 2021 (2021-07-19 UTC)

Documentation

Showing up to 5 results
|